Date,TemperatureHighF,TemperatureAvgF,TemperatureLowF,DewpointHighF,DewpointAvgF,DewpointLowF,HumidityHigh,HumidityAvg,HumidityLow,PressureMaxIn,PressureMinIn,WindSpeedMaxMPH,WindSpeedAvgMPH,GustSpeedMaxMPH,PrecipitationSumIn
2013-4-1,37,30,26,24,18,14,91,61,42,30.25,29.97,12,7,23,0.00
2013-4-2,42,32,22,20,16,14,80,56,35,30.38,30.24,12,5,17,0.00
2013-4-3,47,34,22,25,17,8,82,54,25,30.51,30.35,12,5,16,0.00
2013-4-4,61,44,29,38,27,11,72,53,38,30.35,30.04,12,6,18,0.00
2013-4-5,48,38,29,33,28,23,97,68,46,30.31,30.10,10,6,13,0.00
2013-4-6,64,48,33,53,38,24,100,70,48,30.23,29.64,24,12,30,0.15
2013-4-7,59,44,35,52,38,34,100,81,52,30.06,29.65,13,7,22,0.01
2013-4-8,57,43,35,50,41,33,100,94,75,30.08,29.66,14,6,16,0.54
2013-4-9,40,38,36,40,38,36,99,99,99,30.11,29.96,18,9,21,1.20
2013-4-10,38,36,33,37,36,33,99,99,99,30.19,29.92,20,11,25,0.89
2013-4-11,37,36,34,37,36,34,99,99,99,30.00,29.65,21,12,30,0.41
2013-4-12,42,37,34,40,36,32,100,96,83,30.16,29.60,14,5,18,0.12
2013-4-13,40,35,0,32,30,28,95,83,62,30.35,30.15,14,6,20,0.02
2013-4-14,53,38,30,50,36,28,100,92,81,30.37,30.00,18,8,24,0.08
2013-4-15,65,52,40,56,48,39,100,88,53,30.34,29.99,27,7,36,0.61
2013-4-16,54,43,34,40,37,33,100,80,53,30.66,30.32,9,4,12,0.01
2013-4-17,43,41,38,43,38,33,100,91,74,30.67,30.22,17,8,25,0.79
2013-4-18,58,47,39,58,46,35,100,98,86,30.22,29.75,18,6,28,1.15
2013-4-19,42,36,30,36,31,26,100,82,68,30.25,29.76,18,11,30,0.00
2013-4-20,46,35,26,27,22,17,85,63,36,30.76,30.25,11,6,15,0.00
2013-4-21,50,40,29,34,28,24,92,66,44,30.86,30.63,17,10,23,0.00
2013-4-22,68,54,41,45,37,33,75,57,37,30.65,30.40,15,9,21,0.00
2013-4-23,55,44,37,52,42,35,100,93,62,30.40,30.27,10,6,15,0.39
2013-4-24,56,43,34,35,30,24,88,63,32,30.42,30.30,11,6,17,0.00
2013-4-25,54,45,39,38,34,29,95,69,42,30.66,30.35,12,6,19,0.01
2013-4-26,69,54,38,51,40,29,79,62,48,30.66,30.54,23,11,30,0.09
2013-4-27,72,58,45,52,47,43,100,70,43,30.63,30.40,13,5,18,0.00
2013-4-28,74,59,50,55,49,43,100,71,46,30.40,30.20,10,3,14,0.00
2013-4-29,73,62,50,59,55,50,99,81,54,30.26,30.13,16,6,21,0.05
2013-4-30,88,74,62,64,60,54,95,67,36,30.31,30.11,21,14,30,0.00